MACSAT 2 (M 2) 1 20608U 90043B 09184.08771707 .00000144 00000-0 18837-4 0 7438 2 20608 89.7375 81.4790 0092513 209.3649 150.2361 14.71969484 25692 TUBSAT A 1 21577U 91050D 09183.62064243 -.00000043 00000-0 18542-6 0 5142 2 21577 98.4635 130.3715 0006589 11.6473 348.4896 14.38533435942421 S80/T 1 22078U 92052C 09184.45162686 -.00000037 00000-0 10000-3 0 7260 2 22078 66.0872 286.1022 0016791 274.2902 85.6190 12.86725838793830 HEALTHSAT 1 1 22827U 93061E 09184.06295206 -.00000008 00000-0 13063-4 0 2946 2 22827 98.4255 138.9046 0008914 182.8451 177.2692 14.30163587822495 TUBSAT B 1 22970U 94003B 09184.24118702 .00000051 00000-0 10000-3 0 972 2 22970 82.5611 138.3228 0015427 203.4105 156.6271 13.16914455742095 CERISE 1 23606U 95033B 09183.72002264 .00000436 00000-0 58118-4 0 8226 2 23606 98.2421 304.8239 0007632 64.1002 296.0988 14.84868718754176 UPM/LBSAT 1 23607U 95033C 09183.89161554 .00000147 00000-0 29785-4 0 1391 2 23607 98.1889 269.8508 0005728 196.0129 164.0900 14.74752273751365 FAISAT 2V 1 24954U 97052B 09184.44804250 .00000048 00000-0 31099-4 0 5518 2 24954 82.9202 303.2314 0041125 84.2291 276.3551 13.79649958592910 MUBLCOM 1 25736U 99026B 09183.89474505 .00000045 00000-0 23982-4 0 7728 2 25736 97.7646 113.7804 0006303 20.3406 339.8035 14.44562741533061 RUBIN-3 & SL-8 R/B 1 27561U 02054C 09184.51489626 -.00000040 00000-0 96398-6 0 7157 2 27561 97.9404 19.1177 0047036 189.8327 170.1960 14.53763349349881 APRIZESAT 2 (LATINSAT D) 1 28366U 04025A 09183.75643054 -.00000134 00000-0 -30157-4 0 4019 2 28366 98.0858 179.5674 0110531 120.3738 240.8425 14.35574885262464 SAUDICOMSAT 1 1 28369U 04025D 09184.13575759 -.00000063 00000-0 -49720-5 0 4323 2 28369 98.0176 221.6518 0034230 5.2943 354.8599 14.50640781265261 SAUDICOMSAT 2 1 28370U 04025E 09184.50294039 .00000071 00000-0 31105-4 0 4374 2 28370 98.0231 207.2099 0059725 36.7659 323.7627 14.45739334264429 APRIZESAT 1 (LATINSAT C) 1 28372U 04025G 09183.77906703 .00000007 00000-0 13197-4 0 4192 2 28372 98.0162 213.4582 0047659 22.1235 338.2006 14.48167531264757 NANOSAT-1 1 28493U 04049B 09183.63343665 .00000043 00000-0 15619-4 0 3841 2 28493 98.2628 145.0745 0004560 193.2077 166.8981 14.70313799243432 SAUDICOMSAT 7 1 31119U 07012C 09183.72647407 .00000384 00000-0 88724-4 0 6752 2 31119 97.9929 245.4687 0061453 208.5149 151.2680 14.59444833117766 SAUDICOMSAT 6 1 31121U 07012E 09184.21844446 .00000364 00000-0 89075-4 0 6772 2 31121 97.9900 241.9595 0078484 218.9005 140.6506 14.56319696117590 SAUDICOMSAT 5 1 31124U 07012H 09183.74599300 .00000398 00000-0 89121-4 0 6834 2 31124 97.9975 247.6502 0053020 202.4758 157.4092 14.61026705117899 SAUDICOMSAT 3 1 31125U 07012J 09184.32730243 .00000409 00000-0 88749-4 0 6875 2 31125 98.0002 250.2355 0044986 194.9265 165.0579 14.62568115118105 SAUDICOMSAT 4 1 31127U 07012L 09183.72280480 .00000379 00000-0 89803-4 0 6815 2 31127 97.9915 243.6012 0069656 214.3697 145.2977 14.57964553117641